Year,Month,Day,Hour,Minute,Value (Times are PST for temperature in C)
2019,03,28,00,00,6.00
2019,03,28,00,01,5.90
2019,03,28,00,02,5.90
2019,03,28,00,03,5.90
2019,03,28,00,04,5.90
2019,03,28,00,05,5.80
2019,03,28,00,06,5.80
2019,03,28,00,07,5.80
2019,03,28,00,08,5.80
2019,03,28,00,09,5.70
2019,03,28,00,10,5.70
2019,03,28,00,11,5.70
2019,03,28,00,12,5.70
2019,03,28,00,13,5.60
2019,03,28,00,14,5.60
2019,03,28,00,15,5.50
2019,03,28,00,16,5.50
2019,03,28,00,17,5.50
2019,03,28,00,18,5.50
2019,03,28,00,19,5.40
2019,03,28,00,20,5.40
2019,03,28,00,21,5.40
2019,03,28,00,22,5.40
2019,03,28,00,23,5.40
2019,03,28,00,24,5.40
2019,03,28,00,25,5.40
2019,03,28,00,26,5.40
2019,03,28,00,27,5.30
2019,03,28,00,28,5.30
2019,03,28,00,29,5.30
2019,03,28,00,30,5.30
2019,03,28,00,31,5.20
2019,03,28,00,32,5.20
2019,03,28,00,33,5.20
2019,03,28,00,34,5.10
2019,03,28,00,35,5.10
2019,03,28,00,36,5.00
2019,03,28,00,37,5.00
2019,03,28,00,38,4.90
2019,03,28,00,39,4.90
2019,03,28,00,40,4.80
2019,03,28,00,41,4.80
2019,03,28,00,42,4.80
2019,03,28,00,43,4.80
2019,03,28,00,44,4.80
2019,03,28,00,45,4.80
2019,03,28,00,46,4.80
2019,03,28,00,47,4.80
2019,03,28,00,48,4.80
2019,03,28,00,49,4.80
2019,03,28,00,50,4.90
2019,03,28,00,51,4.80
2019,03,28,00,52,4.80
2019,03,28,00,53,4.80
2019,03,28,00,54,4.80
2019,03,28,00,55,4.90
2019,03,28,00,56,4.90
2019,03,28,00,57,4.90
2019,03,28,00,58,5.00
2019,03,28,00,59,5.00
2019,03,28,01,00,5.10
2019,03,28,01,01,5.10
2019,03,28,01,02,5.10
2019,03,28,01,03,5.10
2019,03,28,01,04,5.10
2019,03,28,01,05,5.00
2019,03,28,01,06,5.00
2019,03,28,01,07,5.00
2019,03,28,01,08,4.90
2019,03,28,01,09,4.90
2019,03,28,01,10,4.90
2019,03,28,01,11,4.90
2019,03,28,01,12,4.90
2019,03,28,01,13,4.90
2019,03,28,01,14,4.90
2019,03,28,01,15,4.90
2019,03,28,01,16,4.90
2019,03,28,01,17,4.90
2019,03,28,01,18,4.90
2019,03,28,01,19,4.90
2019,03,28,01,20,4.90
2019,03,28,01,21,4.90
2019,03,28,01,22,4.90
2019,03,28,01,23,5.00
2019,03,28,01,24,5.00
2019,03,28,01,25,5.10
2019,03,28,01,26,5.10
2019,03,28,01,27,5.10
2019,03,28,01,28,5.10
2019,03,28,01,29,5.20
2019,03,28,01,30,5.20
2019,03,28,01,31,5.20
2019,03,28,01,32,5.20
2019,03,28,01,33,5.20
2019,03,28,01,34,5.20
2019,03,28,01,35,5.20
2019,03,28,01,36,5.20
2019,03,28,01,37,5.10
2019,03,28,01,38,5.10
2019,03,28,01,39,5.10
2019,03,28,01,40,5.10
2019,03,28,01,41,5.10
2019,03,28,01,42,5.00
2019,03,28,01,43,5.00
2019,03,28,01,44,5.00
2019,03,28,01,45,5.00
2019,03,28,01,46,5.00
2019,03,28,01,47,5.00
2019,03,28,01,48,5.00
2019,03,28,01,49,5.00
2019,03,28,01,50,5.00
2019,03,28,01,51,5.00
2019,03,28,01,52,5.00
2019,03,28,01,53,4.90
2019,03,28,01,54,4.90
2019,03,28,01,55,4.90
2019,03,28,01,56,4.90
2019,03,28,01,57,4.90
2019,03,28,01,58,4.90
2019,03,28,01,59,4.90
2019,03,28,02,00,4.90
2019,03,28,02,01,4.90
2019,03,28,02,02,4.90
2019,03,28,02,03,4.90
2019,03,28,02,04,4.90
2019,03,28,02,05,4.90
2019,03,28,02,06,4.90
2019,03,28,02,07,4.90
2019,03,28,02,08,4.90
2019,03,28,02,09,4.90
2019,03,28,02,10,4.90
2019,03,28,02,11,4.90
2019,03,28,02,12,4.90
2019,03,28,02,13,4.90
2019,03,28,02,14,4.90
2019,03,28,02,15,4.90
2019,03,28,02,16,4.90
2019,03,28,02,17,4.90
2019,03,28,02,18,4.80
2019,03,28,02,19,4.80
2019,03,28,02,20,4.80
2019,03,28,02,21,4.70
2019,03,28,02,22,4.80
2019,03,28,02,23,4.80
2019,03,28,02,24,4.80
2019,03,28,02,25,4.80
2019,03,28,02,26,4.80
2019,03,28,02,27,4.80
2019,03,28,02,28,4.80
2019,03,28,02,29,4.80
2019,03,28,02,30,4.70
2019,03,28,02,31,4.70
2019,03,28,02,32,4.70
2019,03,28,02,33,4.70
2019,03,28,02,34,4.70
2019,03,28,02,35,4.70
2019,03,28,02,36,4.60
2019,03,28,02,37,4.60
2019,03,28,02,38,4.60
2019,03,28,02,39,4.60
2019,03,28,02,40,4.60
2019,03,28,02,41,4.60
2019,03,28,02,42,4.60
2019,03,28,02,43,4.60
2019,03,28,02,44,4.60
2019,03,28,02,45,4.60
2019,03,28,02,46,4.60
2019,03,28,02,47,4.60
2019,03,28,02,48,4.70
2019,03,28,02,49,4.70
2019,03,28,02,50,4.70
2019,03,28,02,51,4.70
2019,03,28,02,52,4.80
2019,03,28,02,53,4.80
2019,03,28,02,54,4.80
2019,03,28,02,55,4.80
2019,03,28,02,56,4.80
2019,03,28,02,57,4.80
2019,03,28,02,58,4.80
2019,03,28,02,59,4.80
2019,03,28,03,00,4.80
2019,03,28,03,01,4.70
2019,03,28,03,02,4.70
2019,03,28,03,03,4.70
2019,03,28,03,04,4.70
2019,03,28,03,05,4.70
2019,03,28,03,06,4.80
2019,03,28,03,07,4.80
2019,03,28,03,08,4.80
2019,03,28,03,09,4.70
2019,03,28,03,10,4.70
2019,03,28,03,11,4.70
2019,03,28,03,12,4.80
2019,03,28,03,13,4.80
2019,03,28,03,14,4.80
2019,03,28,03,15,4.80
2019,03,28,03,16,4.80
2019,03,28,03,17,4.80
2019,03,28,03,18,4.90
2019,03,28,03,19,4.90
2019,03,28,03,20,4.90
2019,03,28,03,21,4.90
2019,03,28,03,22,5.00
2019,03,28,03,23,5.00
2019,03,28,03,24,5.00
2019,03,28,03,25,5.00
2019,03,28,03,26,5.00
2019,03,28,03,27,5.00
2019,03,28,03,28,5.00
2019,03,28,03,29,5.00
2019,03,28,03,30,5.00
2019,03,28,03,31,5.00
2019,03,28,03,32,5.00
2019,03,28,03,33,5.00
2019,03,28,03,34,5.00
2019,03,28,03,35,5.00
2019,03,28,03,36,5.00
2019,03,28,03,37,5.10
2019,03,28,03,38,5.10
2019,03,28,03,39,5.10
2019,03,28,03,40,5.10
2019,03,28,03,41,5.10
2019,03,28,03,42,5.10
2019,03,28,03,43,5.10
2019,03,28,03,44,5.10
2019,03,28,03,45,5.10
2019,03,28,03,46,5.10
2019,03,28,03,47,5.10
2019,03,28,03,48,5.10
2019,03,28,03,49,5.10
2019,03,28,03,50,5.10
2019,03,28,03,51,5.10
2019,03,28,03,52,5.10
2019,03,28,03,53,5.00
2019,03,28,03,54,5.00
2019,03,28,03,55,5.10
2019,03,28,03,56,5.10
2019,03,28,03,57,5.20
2019,03,28,03,58,5.20
2019,03,28,03,59,5.20
2019,03,28,04,00,5.20
2019,03,28,04,01,5.20
2019,03,28,04,02,5.20
2019,03,28,04,03,5.20
2019,03,28,04,04,5.10
2019,03,28,04,05,5.10
2019,03,28,04,06,5.10
2019,03,28,04,07,5.10
2019,03,28,04,08,5.20
2019,03,28,04,09,5.20
2019,03,28,04,10,5.20
2019,03,28,04,11,5.20
2019,03,28,04,12,5.20
2019,03,28,04,13,5.20
2019,03,28,04,14,5.20
2019,03,28,04,15,5.20
2019,03,28,04,16,5.10
2019,03,28,04,17,5.10
2019,03,28,04,18,5.10
2019,03,28,04,19,5.10
2019,03,28,04,20,5.00
2019,03,28,04,21,5.00
2019,03,28,04,22,5.00
2019,03,28,04,23,4.90
2019,03,28,04,24,4.90
2019,03,28,04,25,4.90
2019,03,28,04,26,4.90
2019,03,28,04,27,4.90
2019,03,28,04,28,4.80
2019,03,28,04,29,4.80
2019,03,28,04,30,4.80
2019,03,28,04,31,4.80
2019,03,28,04,32,4.70
2019,03,28,04,33,4.70
2019,03,28,04,34,4.70
2019,03,28,04,35,4.70
2019,03,28,04,36,4.70
2019,03,28,04,37,4.70
2019,03,28,04,38,4.70
2019,03,28,04,39,4.70
2019,03,28,04,40,4.70
2019,03,28,04,41,4.70
2019,03,28,04,42,4.70
2019,03,28,04,43,4.70
2019,03,28,04,44,4.80
2019,03,28,04,45,4.80
2019,03,28,04,46,4.80
2019,03,28,04,47,4.80
2019,03,28,04,48,4.80
2019,03,28,04,49,4.80
2019,03,28,04,50,4.90
2019,03,28,04,51,5.00
2019,03,28,04,52,5.10
2019,03,28,04,53,5.10
2019,03,28,04,54,5.10
2019,03,28,04,55,5.10
2019,03,28,04,56,5.10
2019,03,28,04,57,5.10
2019,03,28,04,58,5.10
2019,03,28,04,59,5.10
2019,03,28,05,00,5.10
2019,03,28,05,01,5.10
2019,03,28,05,02,5.00
2019,03,28,05,03,5.00
2019,03,28,05,04,5.00
2019,03,28,05,05,5.00
2019,03,28,05,06,4.90
2019,03,28,05,07,4.90
2019,03,28,05,08,4.90
2019,03,28,05,09,4.90
2019,03,28,05,10,4.90
2019,03,28,05,11,4.90
2019,03,28,05,12,4.80
2019,03,28,05,13,4.80
2019,03,28,05,14,4.80
2019,03,28,05,15,4.80
2019,03,28,05,16,4.80
2019,03,28,05,17,4.80
2019,03,28,05,18,4.80
2019,03,28,05,19,4.80
2019,03,28,05,20,4.70
2019,03,28,05,21,4.70
2019,03,28,05,22,4.70
2019,03,28,05,23,4.70
2019,03,28,05,24,4.70
2019,03,28,05,25,4.70
2019,03,28,05,26,4.70
2019,03,28,05,27,4.60
2019,03,28,05,28,4.60
2019,03,28,05,29,4.60
2019,03,28,05,30,4.60
2019,03,28,05,31,4.60
2019,03,28,05,32,4.50
2019,03,28,05,33,4.50
2019,03,28,05,34,4.50
2019,03,28,05,35,4.50
2019,03,28,05,36,4.50
2019,03,28,05,37,4.50
2019,03,28,05,38,4.50
2019,03,28,05,39,4.50
2019,03,28,05,40,4.50
2019,03,28,05,41,4.50
2019,03,28,05,42,4.50
2019,03,28,05,43,4.50
2019,03,28,05,44,4.50
2019,03,28,05,45,4.50
2019,03,28,05,46,4.40
2019,03,28,05,47,4.40
2019,03,28,05,48,4.40
2019,03,28,05,49,4.40
2019,03,28,05,50,4.40
2019,03,28,05,51,4.40
2019,03,28,05,52,4.40
2019,03,28,05,53,4.40
2019,03,28,05,54,4.40
2019,03,28,05,55,4.40
2019,03,28,05,56,4.40
2019,03,28,05,57,4.40
2019,03,28,05,58,4.40
2019,03,28,05,59,4.40
2019,03,28,06,00,4.40
2019,03,28,06,01,4.40
2019,03,28,06,02,4.40
2019,03,28,06,03,4.40
2019,03,28,06,04,4.40
2019,03,28,06,05,4.40
2019,03,28,06,06,4.40
2019,03,28,06,07,4.40
2019,03,28,06,08,4.50
2019,03,28,06,09,4.50
2019,03,28,06,10,4.50
2019,03,28,06,11,4.50
2019,03,28,06,12,4.50
2019,03,28,06,13,4.50
2019,03,28,06,14,4.50
2019,03,28,06,15,4.50
2019,03,28,06,16,4.50
2019,03,28,06,17,4.50
2019,03,28,06,18,4.50
2019,03,28,06,19,4.50
2019,03,28,06,20,4.50
2019,03,28,06,21,4.50
2019,03,28,06,22,4.50
2019,03,28,06,23,4.50
2019,03,28,06,24,4.50
2019,03,28,06,25,4.50
2019,03,28,06,26,4.50
2019,03,28,06,27,4.50
2019,03,28,06,28,4.60
2019,03,28,06,29,4.60
2019,03,28,06,30,4.60
2019,03,28,06,31,4.60
2019,03,28,06,32,4.60
2019,03,28,06,33,4.70
2019,03,28,06,34,4.70
2019,03,28,06,35,4.80
2019,03,28,06,36,4.80
2019,03,28,06,37,4.80
2019,03,28,06,38,4.90
2019,03,28,06,39,4.90
2019,03,28,06,40,4.90
2019,03,28,06,41,4.90
2019,03,28,06,42,4.90
2019,03,28,06,43,4.90
2019,03,28,06,44,4.90
2019,03,28,06,45,4.90
2019,03,28,06,46,4.90
2019,03,28,06,47,4.90
2019,03,28,06,48,4.90
2019,03,28,06,49,4.90
2019,03,28,06,50,4.90
2019,03,28,06,51,4.90
2019,03,28,06,52,4.90
2019,03,28,06,53,4.90
2019,03,28,06,54,4.90
2019,03,28,06,55,4.90
2019,03,28,06,56,4.90
2019,03,28,06,57,4.90
2019,03,28,06,58,4.90
2019,03,28,06,59,4.90
2019,03,28,07,00,4.80
2019,03,28,07,01,4.80
2019,03,28,07,02,4.80
2019,03,28,07,03,4.80
2019,03,28,07,04,4.80
2019,03,28,07,05,4.80
2019,03,28,07,06,4.80
2019,03,28,07,07,4.80
2019,03,28,07,08,4.80
2019,03,28,07,09,4.80
2019,03,28,07,10,4.80
2019,03,28,07,11,4.80
2019,03,28,07,12,4.80
2019,03,28,07,13,4.80
2019,03,28,07,14,4.80
2019,03,28,07,15,4.80
2019,03,28,07,16,4.80
2019,03,28,07,17,4.80
2019,03,28,07,18,4.90
2019,03,28,07,19,4.90
2019,03,28,07,20,4.90
2019,03,28,07,21,4.90
2019,03,28,07,22,4.90
2019,03,28,07,23,4.90
2019,03,28,07,24,4.90
2019,03,28,07,25,4.90
2019,03,28,07,26,4.90
2019,03,28,07,27,4.90
2019,03,28,07,28,4.90
2019,03,28,07,29,4.90
2019,03,28,07,30,4.90
2019,03,28,07,31,4.90
2019,03,28,07,32,4.90
2019,03,28,07,33,4.90
2019,03,28,07,34,4.90
2019,03,28,07,35,4.90
2019,03,28,07,36,4.90
2019,03,28,07,37,4.90
2019,03,28,07,38,4.90
2019,03,28,07,39,4.90
2019,03,28,07,40,5.00
2019,03,28,07,41,5.00
2019,03,28,07,42,5.00
2019,03,28,07,43,5.10
2019,03,28,07,44,5.10
2019,03,28,07,45,5.10
2019,03,28,07,46,5.20
2019,03,28,07,47,5.20
2019,03,28,07,48,5.20
2019,03,28,07,49,5.30
2019,03,28,07,50,5.30
2019,03,28,07,51,5.30
2019,03,28,07,52,5.30
2019,03,28,07,53,5.30
2019,03,28,07,54,5.30
2019,03,28,07,55,5.30
2019,03,28,07,56,5.40
2019,03,28,07,57,5.40
2019,03,28,07,58,5.40
2019,03,28,07,59,5.40
2019,03,28,08,00,5.40
2019,03,28,08,01,5.50
2019,03,28,08,02,5.40
2019,03,28,08,03,5.40
2019,03,28,08,04,5.40
2019,03,28,08,05,5.40
2019,03,28,08,06,5.40
2019,03,28,08,07,5.40
2019,03,28,08,08,5.40
2019,03,28,08,09,5.40
2019,03,28,08,10,5.40
2019,03,28,08,11,5.40
2019,03,28,08,12,5.40
2019,03,28,08,13,5.40
2019,03,28,08,14,5.40
2019,03,28,08,15,5.50
2019,03,28,08,16,5.50
2019,03,28,08,17,5.50
2019,03,28,08,18,5.50
2019,03,28,08,19,5.50
2019,03,28,08,20,5.60
2019,03,28,08,21,5.60
2019,03,28,08,22,5.70
2019,03,28,08,23,5.70
2019,03,28,08,24,5.80
2019,03,28,08,25,5.80
2019,03,28,08,26,5.80
2019,03,28,08,27,5.80
2019,03,28,08,28,5.80
2019,03,28,08,29,5.80
2019,03,28,08,30,5.80
2019,03,28,08,31,5.80
2019,03,28,08,32,5.80
2019,03,28,08,33,5.80
2019,03,28,08,34,5.80
2019,03,28,08,35,5.80
2019,03,28,08,36,5.80
2019,03,28,08,37,5.80
2019,03,28,08,38,5.80
2019,03,28,08,39,5.80
2019,03,28,08,40,5.90
2019,03,28,08,41,5.90
2019,03,28,08,42,6.00
2019,03,28,08,43,6.00
2019,03,28,08,44,6.10
2019,03,28,08,45,6.10
2019,03,28,08,46,6.10
2019,03,28,08,47,6.20
2019,03,28,08,48,6.20
2019,03,28,08,49,6.30
2019,03,28,08,50,6.30
2019,03,28,08,51,6.30
2019,03,28,08,52,6.30
2019,03,28,08,53,6.40
2019,03,28,08,54,6.40
2019,03,28,08,55,6.50
2019,03,28,08,56,6.50
2019,03,28,08,57,6.50
2019,03,28,08,58,6.60
2019,03,28,08,59,6.70
2019,03,28,09,00,6.70
2019,03,28,09,01,6.70
2019,03,28,09,02,6.80
2019,03,28,09,03,6.80
2019,03,28,09,04,6.80
2019,03,28,09,05,6.80
2019,03,28,09,06,6.80
2019,03,28,09,07,6.90
2019,03,28,09,08,6.90
2019,03,28,09,09,6.90
2019,03,28,09,10,6.90
2019,03,28,09,11,7.00
2019,03,28,09,12,7.00
2019,03,28,09,13,7.00
2019,03,28,09,14,7.10
2019,03,28,09,15,7.10
2019,03,28,09,16,7.10
2019,03,28,09,17,7.20
2019,03,28,09,18,7.20
2019,03,28,09,19,7.20
2019,03,28,09,20,7.30
2019,03,28,09,21,7.30
2019,03,28,09,22,7.30
2019,03,28,09,23,7.40
2019,03,28,09,24,7.40
2019,03,28,09,25,7.50
2019,03,28,09,26,7.50
2019,03,28,09,27,7.60
2019,03,28,09,28,7.60
2019,03,28,09,29,7.60
2019,03,28,09,30,7.60
2019,03,28,09,31,7.60
2019,03,28,09,32,7.60
2019,03,28,09,33,7.60
2019,03,28,09,34,7.70
2019,03,28,09,35,7.70
2019,03,28,09,36,7.70
2019,03,28,09,37,7.70
2019,03,28,09,38,7.70
2019,03,28,09,39,7.70
2019,03,28,09,40,7.70
2019,03,28,09,41,7.80
2019,03,28,09,42,7.80
2019,03,28,09,43,7.90
2019,03,28,09,44,7.90
2019,03,28,09,45,7.90
2019,03,28,09,46,8.00
2019,03,28,09,47,8.00
2019,03,28,09,48,8.00
2019,03,28,09,49,8.10
2019,03,28,09,50,8.10
2019,03,28,09,51,8.10
2019,03,28,09,52,8.10
2019,03,28,09,53,8.10
2019,03,28,09,54,8.10
2019,03,28,09,55,8.10
2019,03,28,09,56,8.10
2019,03,28,09,57,8.10
2019,03,28,09,58,8.10
2019,03,28,09,59,8.10
2019,03,28,10,00,8.20
2019,03,28,10,01,8.20
2019,03,28,10,02,8.20
2019,03,28,10,03,8.20
2019,03,28,10,04,8.20
2019,03,28,10,05,8.20
2019,03,28,10,06,8.20
2019,03,28,10,07,8.20
2019,03,28,10,08,8.20
2019,03,28,10,09,8.20
2019,03,28,10,10,8.20
2019,03,28,10,11,8.20
2019,03,28,10,12,8.30
2019,03,28,10,13,8.30
2019,03,28,10,14,8.30
2019,03,28,10,15,8.30
2019,03,28,10,16,8.30
2019,03,28,10,17,8.40
2019,03,28,10,18,8.40
2019,03,28,10,19,8.40
2019,03,28,10,20,8.40
2019,03,28,10,21,8.50
2019,03,28,10,22,8.50
2019,03,28,10,23,8.50
2019,03,28,10,24,8.50
2019,03,28,10,25,8.50
2019,03,28,10,26,8.60
2019,03,28,10,27,8.60
2019,03,28,10,28,8.60
2019,03,28,10,29,8.70
2019,03,28,10,30,8.70
2019,03,28,10,31,8.70
2019,03,28,10,32,8.70
2019,03,28,10,33,8.70
2019,03,28,10,34,8.80
2019,03,28,10,35,8.80
2019,03,28,10,36,8.80
2019,03,28,10,37,8.90
2019,03,28,10,38,8.90
2019,03,28,10,39,8.90
2019,03,28,10,40,8.90
2019,03,28,10,41,8.90
2019,03,28,10,42,8.90
2019,03,28,10,43,9.00
2019,03,28,10,44,9.00
2019,03,28,10,45,9.00
2019,03,28,10,46,9.10
2019,03,28,10,47,9.10
2019,03,28,10,48,9.20
2019,03,28,10,49,9.20
2019,03,28,10,50,9.20
2019,03,28,10,51,9.20
2019,03,28,10,52,9.20
2019,03,28,10,53,9.30
2019,03,28,10,54,9.30
2019,03,28,10,55,9.40
2019,03,28,10,56,9.40
2019,03,28,10,57,9.40
2019,03,28,10,58,9.50
2019,03,28,10,59,9.50
2019,03,28,11,00,9.60
2019,03,28,11,01,9.60
2019,03,28,11,02,9.60
2019,03,28,11,03,9.70
2019,03,28,11,04,9.70
2019,03,28,11,05,9.70
2019,03,28,11,06,9.80
2019,03,28,11,07,9.80
2019,03,28,11,08,9.90
2019,03,28,11,09,9.90
2019,03,28,11,10,10.00
2019,03,28,11,11,10.00
2019,03,28,11,12,10.10
2019,03,28,11,13,10.20
2019,03,28,11,14,10.20
2019,03,28,11,15,10.30
2019,03,28,11,16,10.30
2019,03,28,11,17,10.30
2019,03,28,11,18,10.30
2019,03,28,11,19,10.30
2019,03,28,11,20,10.30
2019,03,28,11,21,10.30
2019,03,28,11,22,10.40
2019,03,28,11,23,10.40
2019,03,28,11,24,10.40
2019,03,28,11,25,10.50
2019,03,28,11,26,10.60
2019,03,28,11,27,10.70
2019,03,28,11,28,10.70
2019,03,28,11,29,10.80
2019,03,28,11,30,10.80
2019,03,28,11,31,10.90
2019,03,28,11,32,10.90
2019,03,28,11,33,10.90
2019,03,28,11,34,11.00
2019,03,28,11,35,11.10
2019,03,28,11,36,11.10
2019,03,28,11,37,11.10
2019,03,28,11,38,11.10
2019,03,28,11,39,11.10
2019,03,28,11,40,11.20
2019,03,28,11,41,11.30
2019,03,28,11,42,11.30
2019,03,28,11,43,11.40
2019,03,28,11,44,11.40
2019,03,28,11,45,11.50
2019,03,28,11,46,11.50
2019,03,28,11,47,11.60
2019,03,28,11,48,11.60
2019,03,28,11,49,11.50
2019,03,28,11,50,11.50
2019,03,28,11,51,11.50
2019,03,28,11,52,11.50
2019,03,28,11,53,11.50
2019,03,28,11,54,11.50
2019,03,28,11,55,11.60
2019,03,28,11,56,11.60
2019,03,28,11,57,11.60
2019,03,28,11,58,11.70
2019,03,28,11,59,11.70
2019,03,28,12,00,11.70
2019,03,28,12,01,11.80
2019,03,28,12,02,11.80
2019,03,28,12,03,11.90
2019,03,28,12,04,12.00
2019,03,28,12,05,12.00
2019,03,28,12,06,12.10
2019,03,28,12,07,12.20
2019,03,28,12,08,12.30
2019,03,28,12,09,12.40
2019,03,28,12,10,12.50
2019,03,28,12,11,12.60
2019,03,28,12,12,12.70
2019,03,28,12,13,12.90
2019,03,28,12,14,12.90
2019,03,28,12,15,13.00
2019,03,28,12,16,13.00
2019,03,28,12,17,13.00
2019,03,28,12,18,12.90
2019,03,28,12,19,12.90
2019,03,28,12,20,12.80
2019,03,28,12,21,12.70
2019,03,28,12,22,12.70
2019,03,28,12,23,12.70
2019,03,28,12,24,12.80
2019,03,28,12,25,12.80
2019,03,28,12,26,12.80
2019,03,28,12,27,12.80
2019,03,28,12,28,12.80
2019,03,28,12,29,12.80
2019,03,28,12,30,12.90
2019,03,28,12,31,13.00
2019,03,28,12,32,13.10
2019,03,28,12,33,13.10
2019,03,28,12,34,13.20
2019,03,28,12,35,13.30
2019,03,28,12,36,13.30
2019,03,28,12,37,13.40
2019,03,28,12,38,13.40
2019,03,28,12,39,13.40
2019,03,28,12,40,13.40
2019,03,28,12,41,13.50
2019,03,28,12,42,13.50
2019,03,28,12,43,13.60
2019,03,28,12,44,13.60
2019,03,28,12,45,13.70
2019,03,28,12,46,13.80
2019,03,28,12,47,13.80
2019,03,28,12,48,13.80
2019,03,28,12,49,13.80
2019,03,28,12,50,13.80
2019,03,28,12,51,13.90
2019,03,28,12,52,13.90
2019,03,28,12,53,14.00
2019,03,28,12,54,14.00
2019,03,28,12,55,14.10
2019,03,28,12,56,14.10
2019,03,28,12,57,14.10
2019,03,28,12,58,14.10
2019,03,28,12,59,14.20
2019,03,28,13,00,14.20
2019,03,28,13,01,14.20
2019,03,28,13,02,14.20
2019,03,28,13,03,14.30
2019,03,28,13,04,14.40
2019,03,28,13,05,14.50
2019,03,28,13,06,14.60
2019,03,28,13,07,14.60
2019,03,28,13,08,14.70
2019,03,28,13,09,14.70
2019,03,28,13,10,14.70
2019,03,28,13,11,14.70
2019,03,28,13,12,14.60
2019,03,28,13,13,14.70
2019,03,28,13,14,14.70
2019,03,28,13,15,14.70
2019,03,28,13,16,14.70
2019,03,28,13,17,14.70
2019,03,28,13,18,14.80
2019,03,28,13,19,14.80
2019,03,28,13,20,14.80
2019,03,28,13,21,14.80
2019,03,28,13,22,14.80
2019,03,28,13,23,14.90
2019,03,28,13,24,14.90
2019,03,28,13,25,15.00
2019,03,28,13,26,15.00
2019,03,28,13,27,15.00
2019,03,28,13,28,15.00
2019,03,28,13,29,15.10
2019,03,28,13,30,15.00
2019,03,28,13,31,14.90
2019,03,28,13,32,14.80
2019,03,28,13,33,14.80
2019,03,28,13,34,14.80
2019,03,28,13,35,14.80
2019,03,28,13,36,14.80
2019,03,28,13,37,14.80
2019,03,28,13,38,14.80
2019,03,28,13,39,14.80
2019,03,28,13,40,14.80
2019,03,28,13,41,14.80
2019,03,28,13,42,14.80
2019,03,28,13,43,14.80
2019,03,28,13,44,14.90
2019,03,28,13,45,14.90
2019,03,28,13,46,14.90
2019,03,28,13,47,14.90
2019,03,28,13,48,14.90
2019,03,28,13,49,15.00
2019,03,28,13,50,15.00
2019,03,28,13,51,15.10
2019,03,28,13,52,15.10
2019,03,28,13,53,15.20
2019,03,28,13,54,15.20
2019,03,28,13,55,15.20
2019,03,28,13,56,15.30
2019,03,28,13,57,15.30
2019,03,28,13,58,15.30
2019,03,28,13,59,15.40
2019,03,28,14,00,15.50
2019,03,28,14,01,15.50
2019,03,28,14,02,15.60
2019,03,28,14,03,15.60
2019,03,28,14,04,15.60
2019,03,28,14,05,15.60
2019,03,28,14,06,15.60
2019,03,28,14,07,15.60
2019,03,28,14,08,15.60
2019,03,28,14,09,15.60
2019,03,28,14,10,15.60
2019,03,28,14,11,15.60
2019,03,28,14,12,15.60
2019,03,28,14,13,15.70
2019,03,28,14,14,15.70
2019,03,28,14,15,15.80
2019,03,28,14,16,15.70
2019,03,28,14,17,15.70
2019,03,28,14,18,15.70
2019,03,28,14,19,15.70
2019,03,28,14,20,15.60
2019,03,28,14,21,15.60
2019,03,28,14,22,15.70
2019,03,28,14,23,15.70
2019,03,28,14,24,15.70
2019,03,28,14,25,15.70
2019,03,28,14,26,15.70
2019,03,28,14,27,15.70
2019,03,28,14,28,15.70
2019,03,28,14,29,15.70
2019,03,28,14,30,15.70
2019,03,28,14,31,15.70
2019,03,28,14,32,15.70
2019,03,28,14,33,15.70
2019,03,28,14,34,15.60
2019,03,28,14,35,15.60
2019,03,28,14,36,15.50
2019,03,28,14,37,15.50
2019,03,28,14,38,15.40
2019,03,28,14,39,15.30
2019,03,28,14,40,15.30
2019,03,28,14,41,15.40
2019,03,28,14,42,15.40
2019,03,28,14,43,15.50
2019,03,28,14,44,15.50
2019,03,28,14,45,15.50
2019,03,28,14,46,15.50
2019,03,28,14,47,15.50
2019,03,28,14,48,15.40
2019,03,28,14,49,15.40
2019,03,28,14,50,15.40
2019,03,28,14,51,15.40
2019,03,28,14,52,15.50
2019,03,28,14,53,15.50
2019,03,28,14,54,15.60
2019,03,28,14,55,15.60
2019,03,28,14,56,15.60
2019,03,28,14,57,15.70
2019,03,28,14,58,15.70
2019,03,28,14,59,15.70
2019,03,28,15,00,15.80
2019,03,28,15,01,15.80
2019,03,28,15,02,15.80
2019,03,28,15,03,15.80
2019,03,28,15,04,15.80
2019,03,28,15,05,15.90
2019,03,28,15,06,15.90
2019,03,28,15,07,15.90
2019,03,28,15,08,15.90
2019,03,28,15,09,15.80
2019,03,28,15,10,15.80
2019,03,28,15,11,15.70
2019,03,28,15,12,15.70
2019,03,28,15,13,15.60
2019,03,28,15,14,15.60
2019,03,28,15,15,15.60
2019,03,28,15,16,15.50
2019,03,28,15,17,15.50
2019,03,28,15,18,15.40
2019,03,28,15,19,15.40
2019,03,28,15,20,15.40
2019,03,28,15,21,15.40
2019,03,28,15,22,15.40
2019,03,28,15,23,15.40
2019,03,28,15,24,15.40
2019,03,28,15,25,15.40
2019,03,28,15,26,15.40
2019,03,28,15,27,15.40
2019,03,28,15,28,15.40
2019,03,28,15,29,15.40
2019,03,28,15,30,15.40
2019,03,28,15,31,15.30
2019,03,28,15,32,15.30
2019,03,28,15,33,15.30
2019,03,28,15,34,15.30
2019,03,28,15,35,15.40
2019,03,28,15,36,15.40
2019,03,28,15,37,15.40
2019,03,28,15,38,15.40
2019,03,28,15,39,15.40
2019,03,28,15,40,15.50
2019,03,28,15,41,15.50
2019,03,28,15,42,15.60
2019,03,28,15,43,15.60
2019,03,28,15,44,15.60
2019,03,28,15,45,15.60
2019,03,28,15,46,15.70
2019,03,28,15,47,15.70
2019,03,28,15,48,15.70
2019,03,28,15,49,15.70
2019,03,28,15,50,15.80
2019,03,28,15,51,15.80
2019,03,28,15,52,15.70
2019,03,28,15,53,15.70
2019,03,28,15,54,15.60
2019,03,28,15,55,15.50
2019,03,28,15,56,15.40
2019,03,28,15,57,15.40
2019,03,28,15,58,15.40
2019,03,28,15,59,15.40
2019,03,28,16,00,15.30
2019,03,28,16,01,15.30
2019,03,28,16,02,15.40
2019,03,28,16,03,15.40
2019,03,28,16,04,15.40
2019,03,28,16,05,15.40
2019,03,28,16,06,15.40
2019,03,28,16,07,15.40
2019,03,28,16,08,15.40
2019,03,28,16,09,15.40
2019,03,28,16,10,15.40
2019,03,28,16,11,15.40
2019,03,28,16,12,15.30
2019,03,28,16,13,15.30
2019,03,28,16,14,15.30
2019,03,28,16,15,15.30
2019,03,28,16,16,15.30
2019,03,28,16,17,15.30
2019,03,28,16,18,15.40
2019,03,28,16,19,15.40
2019,03,28,16,20,15.50
2019,03,28,16,21,15.50
2019,03,28,16,22,15.50
2019,03,28,16,23,15.60
2019,03,28,16,24,15.50
2019,03,28,16,25,15.50
2019,03,28,16,26,15.50
2019,03,28,16,27,15.50
2019,03,28,16,28,15.50
2019,03,28,16,29,15.50
2019,03,28,16,30,15.40
2019,03,28,16,31,15.40
2019,03,28,16,32,15.40
2019,03,28,16,33,15.40
2019,03,28,16,34,15.40
2019,03,28,16,35,15.50
2019,03,28,16,36,15.50
2019,03,28,16,37,15.50
2019,03,28,16,38,15.60
2019,03,28,16,39,15.60
2019,03,28,16,40,15.70
2019,03,28,16,41,15.80
2019,03,28,16,42,15.80
2019,03,28,16,43,15.80
2019,03,28,16,44,15.80
2019,03,28,16,45,15.70
2019,03,28,16,46,15.70
2019,03,28,16,47,15.70
2019,03,28,16,48,15.70
2019,03,28,16,49,15.70
2019,03,28,16,50,15.70
2019,03,28,16,51,15.70
2019,03,28,16,52,15.70
2019,03,28,16,53,15.60
2019,03,28,16,54,15.60
2019,03,28,16,55,15.50
2019,03,28,16,56,15.50
2019,03,28,16,57,15.50
2019,03,28,16,58,15.50
2019,03,28,16,59,15.50
2019,03,28,17,00,15.50
2019,03,28,17,01,15.50
2019,03,28,17,02,15.60
2019,03,28,17,03,15.60
2019,03,28,17,04,15.60
2019,03,28,17,05,15.60
2019,03,28,17,06,15.60
2019,03,28,17,07,15.70
2019,03,28,17,08,15.70
2019,03,28,17,09,15.80
2019,03,28,17,10,15.80
2019,03,28,17,11,15.80
2019,03,28,17,12,15.80
2019,03,28,17,13,15.80
2019,03,28,17,14,15.80
2019,03,28,17,15,15.80
2019,03,28,17,16,15.80
2019,03,28,17,17,15.80
2019,03,28,17,18,15.70
2019,03,28,17,19,15.70
2019,03,28,17,20,15.70
2019,03,28,17,21,15.70
2019,03,28,17,22,15.70
2019,03,28,17,23,15.70
2019,03,28,17,24,15.70
2019,03,28,17,25,15.70
2019,03,28,17,26,15.60
2019,03,28,17,27,15.60
2019,03,28,17,28,15.50
2019,03,28,17,29,15.50
2019,03,28,17,30,15.50
2019,03,28,17,31,15.40
2019,03,28,17,32,15.40
2019,03,28,17,33,15.40
2019,03,28,17,34,15.40
2019,03,28,17,35,15.40
2019,03,28,17,36,15.40
2019,03,28,17,37,15.40
2019,03,28,17,38,15.40
2019,03,28,17,39,15.40
2019,03,28,17,40,15.50
2019,03,28,17,41,15.50
2019,03,28,17,42,15.50
2019,03,28,17,43,15.50
2019,03,28,17,44,15.50
2019,03,28,17,45,15.40
2019,03,28,17,46,15.40
2019,03,28,17,47,15.40
2019,03,28,17,48,15.40